TimeHST,TemperatureF,Dew PointF,Humidity,Sea Level PressureIn,VisibilityMPH,Wind Direction,Wind SpeedMPH,Gust SpeedMPH,PrecipitationIn,Events,Conditions,WindDirDegrees,DateUTC
12:53 AM,78.1,66.9,68,29.99,10.0,ENE,10.4,-,N/A,,Scattered Clouds,60,2013-09-18 10:53:00
1:53 AM,78.1,66.9,68,29.98,10.0,ENE,11.5,-,N/A,,Scattered Clouds,60,2013-09-18 11:53:00
2:53 AM,77.0,66.9,71,29.96,10.0,NNE,6.9,-,N/A,,Scattered Clouds,30,2013-09-18 12:53:00
3:53 AM,75.9,66.0,71,29.95,10.0,NE,5.8,-,N/A,,Scattered Clouds,40,2013-09-18 13:53:00
4:53 AM,77.0,66.9,71,29.96,10.0,ENE,9.2,-,N/A,,Partly Cloudy,60,2013-09-18 14:53:00
5:53 AM,77.0,68.0,74,29.96,10.0,ENE,11.5,-,N/A,,Partly Cloudy,60,2013-09-18 15:53:00
6:53 AM,77.0,66.9,71,29.97,10.0,NE,15.0,-,N/A,,Scattered Clouds,50,2013-09-18 16:53:00
7:53 AM,79.0,68.0,69,29.99,10.0,ENE,15.0,25.3,0.00,,Mostly Cloudy,60,2013-09-18 17:53:00
8:53 AM,81.0,66.0,60,30.01,10.0,ENE,17.3,-,N/A,,Mostly Cloudy,60,2013-09-18 18:53:00
9:53 AM,84.0,66.0,55,30.01,10.0,ENE,16.1,23.0,N/A,,Scattered Clouds,60,2013-09-18 19:53:00
10:53 AM,86.0,66.0,51,30.00,10.0,ENE,13.8,21.9,N/A,,Scattered Clouds,60,2013-09-18 20:53:00
11:53 AM,87.1,64.9,48,29.99,10.0,ENE,17.3,21.9,N/A,,Scattered Clouds,60,2013-09-18 21:53:00
12:53 PM,88.0,63.0,43,29.98,10.0,East,13.8,25.3,N/A,,Scattered Clouds,80,2013-09-18 22:53:00
1:53 PM,87.1,64.0,46,29.96,10.0,NE,18.4,23.0,N/A,,Scattered Clouds,50,2013-09-18 23:53:00
2:53 PM,88.0,62.1,42,29.95,10.0,ENE,16.1,23.0,N/A,,Mostly Cloudy,60,2013-09-19 00:53:00
3:53 PM,86.0,63.0,46,29.95,10.0,ENE,17.3,20.7,N/A,,Mostly Cloudy,60,2013-09-19 01:53:00
4:53 PM,82.9,64.9,54,29.95,10.0,ENE,12.7,21.9,N/A,,Scattered Clouds,60,2013-09-19 02:53:00
5:53 PM,82.0,64.9,56,29.95,10.0,ENE,11.5,20.7,N/A,,Mostly Cloudy,60,2013-09-19 03:53:00
6:53 PM,81.0,66.9,62,29.96,10.0,NE,12.7,-,N/A,,Scattered Clouds,50,2013-09-19 04:53:00
7:53 PM,80.1,66.9,64,29.98,10.0,ENE,13.8,-,N/A,,Scattered Clouds,60,2013-09-19 05:53:00
8:53 PM,79.0,66.0,64,29.99,10.0,NE,10.4,-,N/A,,Scattered Clouds,50,2013-09-19 06:53:00
9:53 PM,78.1,68.0,71,30.00,10.0,NE,9.2,-,0.00,,Scattered Clouds,50,2013-09-19 07:53:00
10:53 PM,78.1,66.9,68,30.00,10.0,ENE,8.1,18.4,N/A,,Scattered Clouds,60,2013-09-19 08:53:00
11:53 PM,77.0,68.0,74,29.99,10.0,NE,10.4,-,N/A,,Scattered Clouds,40,2013-09-19 09:53:00